TimeEST,TemperatureF,Dew PointF,Humidity,Sea Level PressureIn,VisibilityMPH,Wind Direction,Wind SpeedMPH,Gust SpeedMPH,PrecipitationIn,Events,Conditions,WindDirDegrees,DateUTC
12:15 AM,35.2,34.7,98,30.03,1.2,Calm,Calm,-,0.07,,Overcast,0,2013-12-29 05:15:00
12:35 AM,35.1,34.5,98,30.02,1.5,Calm,Calm,-,0.10,Rain,Rain,0,2013-12-29 05:35:00
12:55 AM,36.0,35.2,97,30.01,2.5,Calm,Calm,-,0.16,Rain,Rain,0,2013-12-29 05:55:00
1:15 AM,36.0,35.2,97,29.99,1.8,Calm,Calm,-,0.03,Rain,Rain,0,2013-12-29 06:15:00
1:35 AM,36.0,35.2,97,29.97,2.5,Calm,Calm,-,0.05,Rain,Light Rain,0,2013-12-29 06:35:00
1:55 AM,35.8,35.1,97,29.97,1.5,Calm,Calm,-,0.07,Rain,Rain,0,2013-12-29 06:55:00
2:15 AM,36.1,35.6,98,29.96,3.0,Calm,Calm,-,0.01,Rain,Heavy Rain,0,2013-12-29 07:15:00
2:35 AM,36.1,35.6,98,29.96,3.0,Calm,Calm,-,0.02,Rain,Rain,0,2013-12-29 07:35:00
2:55 AM,36.5,35.6,97,29.92,4.0,Calm,Calm,-,0.02,,Drizzle,0,2013-12-29 07:55:00
3:15 AM,36.7,36.0,97,29.92,3.0,Calm,Calm,-,0.02,Rain,Heavy Rain,0,2013-12-29 08:15:00
3:35 AM,36.5,35.8,97,29.90,2.5,Calm,Calm,-,0.03,,Drizzle,0,2013-12-29 08:35:00
3:55 AM,36.9,36.1,97,29.89,3.0,Calm,Calm,-,0.03,Rain,Light Rain,0,2013-12-29 08:55:00
4:15 AM,36.9,36.1,97,29.88,3.0,Calm,Calm,-,0.01,Rain,Rain,0,2013-12-29 09:15:00
4:35 AM,37.4,36.5,97,29.87,2.5,Calm,Calm,-,0.01,Rain,Light Rain,0,2013-12-29 09:35:00
4:55 AM,38.7,37.9,97,29.85,3.0,Calm,Calm,-,0.02,,Light Drizzle,0,2013-12-29 09:55:00
5:15 AM,39.6,38.8,97,29.84,3.0,ENE,4.6,-,N/A,Rain,Light Rain,60,2013-12-29 10:15:00
5:35 AM,40.1,39.4,97,29.85,5.0,Calm,Calm,-,0.01,,Heavy Drizzle,0,2013-12-29 10:35:00
5:55 AM,41.0,40.3,97,29.86,5.0,Calm,Calm,-,0.04,Rain,Heavy Rain,0,2013-12-29 10:55:00
6:15 AM,41.2,40.5,97,29.86,4.0,Calm,Calm,-,N/A,,Drizzle,0,2013-12-29 11:15:00
6:35 AM,41.2,40.5,97,29.86,4.0,Calm,Calm,-,0.01,,Light Drizzle,0,2013-12-29 11:35:00
6:55 AM,40.8,40.1,97,29.86,2.0,Calm,Calm,-,0.01,Rain,Light Rain,0,2013-12-29 11:55:00
7:15 AM,40.8,40.1,97,29.85,4.0,Calm,Calm,-,N/A,Rain,Light Rain,0,2013-12-29 12:15:00
7:35 AM,41.0,40.1,97,29.84,4.0,Calm,Calm,-,N/A,Rain,Light Rain,0,2013-12-29 12:35:00
7:55 AM,40.5,39.7,97,29.84,1.2,Calm,Calm,-,0.01,,Light Drizzle,0,2013-12-29 12:55:00
8:15 AM,41.0,40.1,97,29.86,10.0,Calm,Calm,-,N/A,,Overcast,0,2013-12-29 13:15:00
8:35 AM,41.0,40.3,97,29.86,5.0,Calm,Calm,-,N/A,,Overcast,0,2013-12-29 13:35:00
8:55 AM,41.2,40.5,97,29.87,4.0,Calm,Calm,-,N/A,Rain,Light Rain,0,2013-12-29 13:55:00
9:15 AM,42.1,41.4,97,29.87,7.0,Calm,Calm,-,N/A,,Overcast,0,2013-12-29 14:15:00
9:35 AM,42.8,41.9,97,29.88,10.0,Calm,Calm,-,N/A,,Overcast,0,2013-12-29 14:35:00
9:55 AM,43.9,43.2,97,29.89,10.0,Calm,Calm,-,N/A,,Overcast,0,2013-12-29 14:55:00
10:15 AM,45.0,44.2,97,29.91,10.0,NW,4.6,-,N/A,,Overcast,310,2013-12-29 15:15:00
10:35 AM,44.8,43.3,95,29.92,10.0,Calm,Calm,-,N/A,,Mostly Cloudy,0,2013-12-29 15:35:00
10:55 AM,44.6,42.3,91,29.91,10.0,North,6.9,-,N/A,,Scattered Clouds,360,2013-12-29 15:55:00
11:15 AM,46.8,42.8,86,29.90,10.0,Calm,Calm,-,N/A,,Scattered Clouds,0,2013-12-29 16:15:00
11:35 AM,48.4,42.6,80,29.90,10.0,NNW,6.9,-,N/A,,Scattered Clouds,330,2013-12-29 16:35:00
11:55 AM,48.7,40.1,72,29.89,10.0,NNW,11.5,16.1,N/A,,Clear,340,2013-12-29 16:55:00
12:15 PM,49.6,40.5,71,29.89,10.0,NW,11.5,17.3,N/A,,Clear,320,2013-12-29 17:15:00
12:35 PM,50.9,40.8,68,29.88,10.0,NW,9.2,-,N/A,,Clear,320,2013-12-29 17:35:00
12:55 PM,51.1,40.5,67,29.88,10.0,NNW,8.1,16.1,N/A,,Clear,330,2013-12-29 17:55:00
1:15 PM,50.9,39.9,66,29.88,10.0,NNW,12.7,-,N/A,,Clear,330,2013-12-29 18:15:00
1:35 PM,50.9,39.4,65,29.88,10.0,NNW,10.4,16.1,N/A,,Clear,340,2013-12-29 18:35:00
1:55 PM,51.1,39.6,65,29.88,10.0,NW,6.9,-,N/A,,Clear,320,2013-12-29 18:55:00
2:15 PM,50.4,39.4,66,29.88,10.0,North,5.8,-,N/A,,Clear,350,2013-12-29 19:15:00
2:35 PM,51.4,39.6,64,29.88,10.0,NW,5.8,-,N/A,,Clear,320,2013-12-29 19:35:00
2:55 PM,52.0,39.6,63,29.89,10.0,NW,8.1,-,N/A,,Clear,320,2013-12-29 19:55:00
3:15 PM,51.4,39.4,63,29.89,10.0,NW,6.9,-,N/A,,Clear,320,2013-12-29 20:15:00
3:35 PM,50.7,38.8,64,29.89,10.0,WNW,5.8,-,N/A,,Clear,300,2013-12-29 20:35:00
3:55 PM,50.7,38.3,62,29.90,10.0,North,5.8,-,N/A,,Clear,350,2013-12-29 20:55:00
4:15 PM,50.0,37.6,62,29.91,10.0,NW,3.5,-,N/A,,Clear,320,2013-12-29 21:15:00
4:35 PM,49.1,37.4,64,29.91,10.0,NNW,6.9,-,N/A,,Clear,330,2013-12-29 21:35:00
4:55 PM,47.5,36.9,67,29.91,10.0,NNW,11.5,-,N/A,,Clear,340,2013-12-29 21:55:00
5:15 PM,46.2,36.9,70,29.93,10.0,North,13.8,20.7,N/A,,Clear,350,2013-12-29 22:15:00
5:35 PM,45.3,36.9,72,29.94,10.0,NNW,6.9,-,N/A,,Clear,340,2013-12-29 22:35:00
5:55 PM,45.0,36.7,73,29.95,10.0,NNW,5.8,-,N/A,,Clear,340,2013-12-29 22:55:00
6:15 PM,44.4,36.5,74,29.95,10.0,NNW,8.1,-,N/A,,Clear,340,2013-12-29 23:15:00
6:35 PM,43.0,36.0,76,29.95,10.0,Calm,Calm,-,N/A,,Clear,0,2013-12-29 23:35:00
6:55 PM,38.5,35.2,88,29.96,10.0,Calm,Calm,-,N/A,,Clear,0,2013-12-29 23:55:00
7:15 PM,43.2,37.0,79,29.97,10.0,NNW,5.8,-,N/A,,Clear,330,2013-12-30 00:15:00
7:35 PM,42.8,36.7,79,29.99,10.0,NNW,8.1,-,N/A,,Clear,340,2013-12-30 00:35:00
7:55 PM,41.9,36.1,80,29.99,10.0,North,6.9,-,N/A,,Clear,350,2013-12-30 00:55:00
8:15 PM,41.5,34.3,76,30.00,10.0,Calm,Calm,-,N/A,,Clear,0,2013-12-30 01:15:00
8:35 PM,39.9,33.1,77,30.00,10.0,Calm,Calm,-,N/A,,Clear,0,2013-12-30 01:35:00
8:55 PM,36.1,32.7,87,30.00,10.0,Calm,Calm,-,N/A,,Clear,0,2013-12-30 01:55:00
9:15 PM,35.1,32.4,90,30.01,10.0,Calm,Calm,-,N/A,,Clear,0,2013-12-30 02:15:00
9:35 PM,34.2,31.8,91,30.01,10.0,Calm,Calm,-,N/A,,Clear,0,2013-12-30 02:35:00
9:55 PM,33.4,31.8,94,30.02,10.0,WSW,3.5,-,N/A,,Clear,240,2013-12-30 02:55:00
10:15 PM,32.7,31.5,95,30.02,10.0,WSW,3.5,-,N/A,,Clear,240,2013-12-30 03:15:00
10:35 PM,32.9,32.0,96,30.03,10.0,SW,3.5,-,N/A,,Clear,230,2013-12-30 03:35:00
10:55 PM,32.7,32.0,97,30.03,10.0,SW,4.6,-,N/A,,Clear,230,2013-12-30 03:55:00
11:15 PM,33.3,32.2,96,30.04,10.0,Calm,Calm,-,N/A,,Mostly Cloudy,0,2013-12-30 04:15:00
11:35 PM,33.1,32.0,96,30.03,10.0,Calm,Calm,-,N/A,,Scattered Clouds,0,2013-12-30 04:35:00
11:55 PM,33.1,32.0,96,30.03,10.0,Calm,Calm,-,N/A,,Mostly Cloudy,0,2013-12-30 04:55:00